Location: Fort Wayne
(41.1310°N, 85.1290°W)
Time: 03:26:39
(UTC-05:00)

Tiros 1 despin weight - Visible Passes

Search period start: 01 March 2015 00:00
Search period end: 11 March 2015 01:00
Orbit: 599 x 648 km, 48.2° (Epoch: 28 February)

Date Brightness Start Highest point End Pass type
(mag) Time Alt. Az. Time Alt. Az. Time Alt. Az.
01 Mar ? 05:26:10 10° SSE 05:28:01 13° SE 05:30:03 10° ESE visible
02 Mar ? 05:42:27 10° SSW 05:46:07 26° SE 05:49:51 10° E visible
03 Mar ? 06:00:14 11° SW 06:04:19 49° SE 06:08:41 10° ENE visible
04 Mar ? 04:41:07 19° SE 04:41:24 19° SE 04:44:34 10° E visible
04 Mar ? 06:18:20 11° WSW 06:22:38 90° S 06:27:10 10° ENE visible
05 Mar ? 04:59:04 35° SSE 04:59:32 36° SE 05:03:40 10° ENE visible
05 Mar ? 06:36:44 10° WSW 06:41:07 57° NNW 06:45:35 10° ENE visible
06 Mar ? 05:16:54 52° SSW 05:17:48 69° SSE 05:22:16 10° ENE visible
07 Mar ? 03:57:26 16° E 03:57:26 16° E 03:58:33 10° E visible
07 Mar ? 05:34:37 38° W 05:36:12 70° NNW 05:40:41 10° ENE visible
08 Mar ? 05:15:05 27° E 05:15:05 27° E 05:17:18 10° ENE visible
08 Mar ? 06:52:16 23° W 06:54:44 46° NNW 06:59:04 10° ENE visible
09 Mar ? 05:32:40 44° ENE 05:32:40 44° ENE 05:35:47 10° ENE visible
09 Mar ? 07:09:50 13° WNW 07:13:22 36° N 07:17:32 10° ENE visible
10 Mar ? 05:50:12 52° N 05:50:12 52° N 05:54:09 10° ENE visible
10 Mar ? 07:28:00 10° WNW 07:32:03 33° N 07:36:07 10° ENE visible
